Date String (YYYY-MM-DD hh:mm:ss) UTC,Instrument flags,absolute air pressure of the measurement (hPa),sample flow rate (lpm),inlet stack bypass flow (lpm),air temperature of the measurement (°C),ambient temperature measured by the external sensor (°C),aerosol sample conditioner tube jacket temperature (°C),OPC LED temperature (°C),internal box temperature (°C),relative humidity of the measurement (%),span deviation,mass concentration of particles derived from Lorenz-Mie calculation of OPC scattering (μg/m³),mass concentration of particles derived from Lorenz-Mie calculation of OPC scattering (μg/m³),mass concentration of particles derived from Lorenz-Mie calculation of OPC scattering (μg/m³)
DateTimeUTC,F1_M11,P_M11,Q1_M11,Q2_M11,T1_M11,T2_M11,T3_M11,T4_M11,T5_M11,U1_M11,ZSPAN_M11,X0_M11,X2_M11,X1_M11
2024-04-12 12:00:00,SystemResetWarning,0829.8,5.00,000.00,023.6,022.8,000.0,032.2,025.4,012.4,0000.0,0021.78,0005.71,0003.18
2024-04-12 12:01:00,SystemResetWarning,0829.8,5.01,000.00,023.6,022.7,000.0,032.2,025.4,012.4,0000.0,0020.38,0005.69,0003.16
2024-04-12 12:02:00,SystemResetWarning,0829.9,5.00,000.00,023.5,022.7,000.0,032.2,025.4,012.4,0000.0,0019.80,0005.62,0003.14
2024-04-12 12:03:00,SystemResetWarning,0830.0,5.00,000.00,023.5,022.7,000.0,032.2,025.4,012.6,0000.0,0020.68,0005.52,0003.12
2024-04-12 12:04:00,SystemResetWarning,0830.1,4.99,000.00,023.5,022.7,000.0,032.1,025.4,012.7,0000.0,0021.45,0005.52,0003.12
2024-04-12 12:05:00,SystemResetWarning,0830.0,4.99,000.00,023.5,022.7,000.0,032.1,025.4,012.6,0000.0,0020.56,0005.49,0003.12
2024-04-12 12:06:00,SystemResetWarning,0830.0,5.00,000.00,023.5,022.7,000.0,032.1,025.4,012.5,0000.0,0018.82,0005.46,0003.11
2024-04-12 12:07:00,SystemResetWarning,0830.0,5.00,000.00,023.5,022.7,000.0,032.1,025.3,012.7,0000.0,0018.38,0005.43,0003.11
2024-04-12 12:08:00,SystemResetWarning,0830.0,5.01,000.00,023.5,022.6,000.0,032.1,025.3,012.9,0000.0,0017.86,0005.38,0003.11
2024-04-12 12:09:00,SystemResetWarning,0830.0,5.00,000.00,023.5,022.6,000.0,032.1,025.3,012.9,0000.0,0017.21,0005.38,0003.11
2024-04-12 12:10:00,SystemResetWarning,0830.0,5.01,000.00,023.5,022.6,000.0,032.1,025.2,013.0,0000.0,0017.36,0005.42,0003.13
2024-04-12 12:11:00,SystemResetWarning,0830.0,4.99,000.00,023.4,022.6,000.0,032.1,025.2,013.2,0000.0,0017.28,0005.42,0003.13
2024-04-12 12:12:00,SystemResetWarning,0830.0,4.98,000.00,023.4,022.6,000.0,032.0,025.2,013.5,0000.0,0017.32,0005.42,0003.14
2024-04-12 12:13:00,SystemResetWarning,0830.0,5.01,000.00,023.4,022.6,000.0,032.0,025.2,013.7,0000.0,0016.32,0005.38,0003.17
2024-04-12 12:14:00,SystemResetWarning,0830.0,5.01,000.00,023.4,022.5,000.0,032.0,025.2,013.9,0000.0,0015.71,0005.47,0003.21
2024-04-12 12:15:00,SystemResetWarning,0830.0,5.00,000.00,023.4,022.5,000.0,032.0,025.2,014.0,0000.0,0014.58,0005.51,0003.25
2024-04-12 12:16:00,SystemResetWarning,0830.0,4.99,000.00,023.4,022.5,000.0,032.0,025.2,014.2,0000.0,0014.77,0005.59,0003.27
2024-04-12 12:17:00,SystemResetWarning,0830.1,4.99,000.00,023.4,022.5,000.0,032.0,025.2,014.2,0000.0,0015.12,0005.68,0003.32
2024-04-12 12:18:00,SystemResetWarning,0830.0,5.00,000.00,023.4,022.5,000.0,032.0,025.2,014.3,0000.0,0016.34,0005.79,0003.35
2024-04-12 12:19:00,SystemResetWarning,0830.1,5.00,000.00,023.4,022.5,000.0,032.0,025.2,014.4,0000.0,0016.53,0005.92,0003.37
2024-04-12 12:20:00,SystemResetWarning,0830.1,5.00,000.00,023.4,022.5,000.0,032.0,025.2,014.6,0000.0,0016.19,0005.92,0003.39
2024-04-12 12:21:00,SystemResetWarning,0830.0,5.00,000.00,023.4,022.5,000.0,032.0,025.2,014.6,0000.0,0015.46,0005.96,0003.42
2024-04-12 12:22:00,SystemResetWarning,0830.0,5.00,000.00,023.4,022.5,000.0,032.0,025.2,014.5,0000.0,0015.81,0006.02,0003.44
2024-04-12 12:23:00,SystemResetWarning,0830.0,5.00,000.00,023.4,022.5,000.0,032.0,025.2,014.4,0000.0,0015.43,0005.98,0003.47
2024-04-12 12:24:00,SystemResetWarning,0830.1,5.00,000.00,023.4,022.5,000.0,032.0,025.2,014.3,0000.0,0015.84,0005.98,0003.47
2024-04-12 12:25:00,SystemResetWarning,0830.1,4.99,000.00,023.4,022.6,000.0,032.0,025.2,014.3,0000.0,0016.29,0006.01,0003.48
2024-04-12 12:26:00,SystemResetWarning,0830.1,5.00,000.00,023.3,022.5,000.0,031.9,025.2,014.2,0000.0,0017.49,0006.01,0003.48
2024-04-12 12:27:00,SystemResetWarning,0830.0,5.01,000.00,023.3,022.5,000.0,031.9,025.2,014.0,0000.0,0018.05,0006.00,0003.47
2024-04-12 12:28:00,SystemResetWarning,0830.1,5.01,000.00,023.3,022.5,000.0,031.9,025.2,013.9,0000.0,0017.79,0005.99,0003.45
2024-04-12 12:29:00,SystemResetWarning,0830.1,4.99,000.00,023.3,022.5,000.0,031.9,025.2,013.9,0000.0,0016.48,0005.94,0003.45
2024-04-12 12:30:00,SystemResetWarning,0830.1,4.99,000.00,023.3,022.5,000.0,031.9,025.1,013.9,0000.0,0016.36,0005.83,0003.43
2024-04-12 12:31:00,SystemResetWarning,0830.1,5.00,000.00,023.3,022.5,000.0,031.9,025.1,014.0,0000.0,0016.85,0005.82,0003.43
2024-04-12 12:32:00,SystemResetWarning,0830.0,4.99,000.00,023.3,022.5,000.0,031.9,025.1,013.9,0000.0,0016.41,0005.72,0003.44
2024-04-12 12:33:00,SystemResetWarning,0830.0,5.00,000.00,023.3,022.5,000.0,031.9,025.1,013.9,0000.0,0016.12,0005.69,0003.45
2024-04-12 12:34:00,SystemResetWarning,0830.1,5.00,000.00,023.3,022.4,000.0,031.9,025.1,013.8,0000.0,0016.26,0005.76,0003.45
2024-04-12 12:35:00,SystemResetWarning,0830.1,5.01,000.00,023.2,022.4,000.0,031.9,025.0,013.9,0000.0,0016.36,0005.88,0003.45
2024-04-12 12:36:00,SystemResetWarning,0830.1,5.01,000.00,023.2,022.3,000.0,031.9,025.0,014.2,0000.0,0016.08,0005.82,0003.44
2024-04-12 12:37:00,SystemResetWarning,0830.1,5.01,000.00,023.2,022.3,000.0,031.8,025.0,013.9,0000.0,0015.41,0005.80,0003.44
2024-04-12 12:38:00,SystemResetWarning,0830.1,4.99,000.00,023.2,022.3,000.0,031.8,025.0,013.5,0000.0,0014.58,0005.79,0003.42
2024-04-12 12:39:00,SystemResetWarning,0830.1,4.99,000.00,023.1,022.3,000.0,031.8,025.0,012.9,0000.0,0014.50,0005.77,0003.42
2024-04-12 12:40:00,SystemResetWarning,0830.0,5.00,000.00,023.1,022.3,000.0,031.8,025.0,012.8,0000.0,0014.47,0005.71,0003.39
2024-04-12 12:41:00,SystemResetWarning,0830.0,4.99,000.00,023.1,022.2,000.0,031.8,024.9,013.5,0000.0,0014.58,0005.74,0003.37
2024-04-12 12:42:00,SystemResetWarning,0830.0,5.01,000.00,023.1,022.2,000.0,031.8,024.9,012.9,0000.0,0014.04,0005.73,0003.37
2024-04-12 12:43:00,SystemResetWarning,0830.0,5.00,000.00,023.1,022.2,000.0,031.7,024.9,012.6,0000.0,0014.53,0005.82,0003.34
2024-04-12 12:44:00,SystemResetWarning,0830.0,5.01,000.00,023.1,022.2,000.0,031.7,024.9,013.0,0000.0,0015.12,0005.83,0003.30
2024-04-12 12:45:00,SystemResetWarning,0830.1,5.00,000.00,023.0,022.1,000.0,031.7,024.9,012.8,0000.0,0015.39,0005.81,0003.27
2024-04-12 12:46:00,SystemResetWarning,0830.1,5.00,000.00,023.0,022.1,000.0,031.7,024.8,012.5,0000.0,0015.69,0005.76,0003.24
2024-04-12 12:47:00,SystemResetWarning,0830.1,5.00,000.00,023.0,022.1,000.0,031.7,024.8,012.6,0000.0,0015.78,0005.78,0003.22
2024-04-12 12:48:00,SystemResetWarning,0830.1,4.99,000.00,023.0,022.1,000.0,031.7,024.8,012.7,0000.0,0016.10,0005.76,0003.18
2024-04-12 12:49:00,SystemResetWarning,0830.2,4.99,000.00,023.0,022.1,000.0,031.6,024.8,012.8,0000.0,0015.71,0005.63,0003.16
2024-04-12 12:50:00,SystemResetWarning,0830.3,5.00,000.00,023.0,022.1,000.0,031.6,024.8,013.2,0000.0,0016.05,0005.58,0003.14
2024-04-12 12:51:00,SystemResetWarning,0830.3,5.00,000.00,023.0,022.1,000.0,031.6,024.8,013.7,0000.0,0016.92,0005.59,0003.13
2024-04-12 12:52:00,SystemResetWarning,0830.3,5.00,000.00,022.9,022.1,000.0,031.6,024.8,013.8,0000.0,0016.82,0005.56,0003.14
2024-04-12 12:53:00,SystemResetWarning,0830.3,5.00,000.00,022.9,022.1,000.0,031.6,024.8,013.7,0000.0,0016.95,0005.57,0003.13
2024-04-12 12:54:00,SystemResetWarning,0830.3,5.00,000.00,022.9,022.1,000.0,031.6,024.8,013.2,0000.0,0017.13,0005.50,0003.10
2024-04-12 12:55:00,SystemResetWarning,0830.3,5.00,000.00,022.9,022.1,000.0,031.6,024.8,013.0,0000.0,0016.71,0005.50,0003.10
2024-04-12 12:56:00,SystemResetWarning,0830.3,5.00,000.00,022.9,022.2,000.0,031.6,024.8,012.9,0000.0,0017.20,0005.49,0003.08
2024-04-12 12:57:00,SystemResetWarning,0830.3,5.01,000.00,022.9,022.2,000.0,031.5,024.8,013.0,0000.0,0016.28,0005.34,0003.03
2024-04-12 12:58:00,SystemResetWarning,0830.2,5.01,000.00,022.9,022.2,000.0,031.5,024.8,013.1,0000.0,0016.07,0005.34,0003.05
2024-04-12 12:59:00,SystemResetWarning,0830.2,5.00,000.00,022.9,022.2,000.0,031.5,024.8,013.2,0000.0,0015.33,0005.35,0003.06
